Tracking 19562 objects as of 25-Mar-2019
HD Live streaming from Space Station
objects crossing your sky now

S-NET D

Track S-NET D now!
10-day predictions
S-NET D is classified as:


NORAD ID: 43186
Int'l Code: 2018-014G
Perigee: 577.8 km
Apogee: 591.3 km
Inclination: 97.7 °
Period: 96.2 minutes
Semi major axis: 6955 km
RCS: Unknown
Launch date: February 1, 2018
Source: Germany (GER)
Launch site: VOSTOCHNY COSMODROME (VOSTO)

Uplink (MHz):
Downlink (MHz): 435.950//2263.000
Beacon (MHz):
Mode: 1k2/2k4 FFSK
Call sign: DP0TBB
Status: Active

aabbcc
Your satellite tracking list
Your tracking list is empty




NASA's NSSDC Master Catalog

Two Line Element Set (TLE):
1 43186U 18014G   19083.84578724 -.00000008  00000-0  43585-5 0  9991
2 43186  97.7150 353.5254 0009652 298.1894  61.8352 14.96603029 62297
Source of the keplerian elements: AMSAT